Back to catalog

DELTA 1 DEB

AlivePO
NORAD 21565·DEBRIS·🇺🇸 United States

Launched Jun 12, 1975 from Vandenberg Space Force Base

Loading…

Next Passes (next 24 hours)

TLE

FreshSource: Space-Track

Epoch: Sep 14, 2026, 06:51 UTC

1 21565U 75052HK  26257.28599986  .00000327  00000-0  11592-2 0  9998
2 21565  99.8302  17.3513 0367682 130.5846 262.8239 12.82059222645573

Track DELTA 1 DEB in real time with AllMySat

Download on the App Store